Flag for Canada Weather past 2 weeks in Coquitlam, British Columbia, Canada

Now
59 °F

Cool.


Feels Like: 59 °F
Forecast: 46 / 67 °F
Wind: 2 mph from Southeast

Location: P. Meadows Coastal Station

Current Time: Sep 4, 2015 at 11:59:22 AM

Latest Report: Sep 4, 2015 at 11:00 AM


Visibility: N/A

Pressure: 30.03 "Hg

Humidity: 68%

Dew point: 48 °F

Location of CoquitlamLocation

Historic Weather in Coquitlam — Graph

°F

Coquitlam temperature yesterday

Maximum temperature yesterday: 59 °F (at 1:00 PM)
Minimum temperature yesterday: 51 °F (at 5:00 AM)
Average temperature yesterday: 54 °F

Past Weeks' High & Low Weather Summary

 TemperatureHumidityPressure
High83 °F (Aug 27, 6:00 PM)99% (Aug 22, 2:00 AM)30.13 "Hg (Aug 22, 2:00 AM)
Low49 °F (Sep 4, 7:00 AM)24% (Aug 27, 4:00 PM)29.46 "Hg (Aug 29, 6:00 AM)
Average62 °F74%29.92 "Hg
* Reported Aug 20 10:00 AM — Sep 4 10:00 AM, Coquitlam, Weather by CustomWeather, © 2015

Note: Actual official high and low records may vary slightly from our data, if they occured in-between our weather recording intervals... More about our weather records

Advertising

Coquitlam weather history for previous 24 hours

 ConditionsComfort  
Time TempWeatherWind HumidityBarometerVisibility
10:00 AM
Fri, Sep 4
55 °FCool.2 mph79%30.03 "HgN/A
9:00 AM53 °FCool.1 mph88%30.03 "HgN/A
8:00 AM51 °FCool.1 mph94%30.03 "HgN/A
7:00 AM49 °FCool.No wind95%30.02 "HgN/A
6:00 AM49 °FCool.No wind87%30.02 "HgN/A
5:00 AM50 °FCool.1 mph93%30.02 "HgN/A
4:00 AM49 °FCool.2 mph93%30.02 "HgN/A
3:00 AM50 °FCool.2 mph95%30.02 "HgN/A
2:00 AM51 °FCool.2 mph93%30.03 "HgN/A
1:00 AM52 °FCool.1 mph90%30.03 "HgN/A
12:00 AM53 °FCool.2 mph89%30.03 "HgN/A
11:00 PM
Thu, Sep 3
52 °FCool.1 mph91%30.03 "HgN/A
10:00 PM52 °FCool.1 mph89%30.03 "HgN/A
9:00 PM53 °FCool.3 mph88%30.02 "HgN/A
8:00 PM54 °FCool.6 mph86%30.01 "HgN/A
7:00 PM53 °FCool.7 mph89%30.01 "HgN/A
6:00 PM55 °FCool.7 mph76%30.01 "HgN/A
5:00 PM56 °FCool.7 mph79%30.01 "HgN/A
4:00 PM54 °FCool.9 mph86%30.01 "HgN/A
3:00 PM57 °FCool.7 mph74%30.01 "HgN/A
2:00 PM57 °FCool.7 mph83%30.00 "HgN/A
1:00 PM59 °FCool.5 mph66%30.00 "HgN/A
12:00 PM58 °FCool.3 mph69%30.01 "HgN/A
11:00 AM56 °FCool.1 mph80%30.01 "HgN/A
Weather by CustomWeather, © 2015

See weather overviewHow to use our weather pages